Weather in Polovinnoye

Russia / Novosibirsk Oblast     53°45′17″N   79°14′47″E
temp.,
°C
wind,
m/s
gust,
m/s
humid.,
%
clouds,
%
prec.,
mm/h
press.,
hPa
HPBL,
m
8 march, mon
mon801:00−5s6139498 0.0 1017346
04:00−5s71493100 0.0 1014351
07:00−5s71492100 0.0 1012348
10:00−5s81590100 0.0 1009372
13:00−3ssw91584100 0.0 1007606
16:00−1sw91491100 0.0 10071012
19:00−4wnw81194100 1.5 1011512
22:00−12w599470 0.1 1017184
9 march, tue
tue901:00−15wsw489636 0.1 1021139
04:00−17sw479664 0.0 1023116
07:00−17ssw589668 0.0 1025143
10:00−14ssw6129168 0.0 1025277
13:00−11ssw7128360 0.0 1025388
16:00−9ssw7128317 0.0 1023451
19:00−11ssw5118745 0.0 1022246
22:00−13ssw5118733 0.0 1021193
10 march, wed
wed1001:00−14ssw5108732 0.0 1020167
04:00−15ssw468926 0.0 101992
07:00−14ssw348863 0.0 101963
10:00−12s3587100 0.0 1018114
13:00−8sse4687100 0.0 1015254
16:00−5se5893100 0.0 1011337
19:000sse81594100 0.0 1005697
22:000s101798100 1.7 1000716
11 march, thu
thu1101:00+2sw918100100 3.1 999788
04:00−9wsw10179095 0.1 1004648
07:00−11sw7149298 0.1 1009405
10:00−11sw71393100 0.0 1011409
13:00−7sw81390100 0.1 1012726
16:00−7sw81286100 0.1 1014821
19:00−9ssw5118769 0.1 1015310
22:00−10s6118846 0.0 1014258
12 march, fri
fri1201:00−6ssw3119673 2.2 1012543
04:00−11wsw91588100 0.6 1015759
07:00−16sw71592100 0.6 1019527
10:00−17sw81492100 0.0 1021642
13:00−17wsw81291100 0.1 1023652
16:00−16wsw71191100 0.1 1025666
19:00−17wsw51094100 0.1 1027430
22:00−22wsw4510094 0.0 103075